This demonstration page uses our WeatherBlox Daily Observations layout. Learn more.

Left ArrowRight Arrow

Hourly Observations for July 28, 2015

Temp ( °F °C ) Dew Point ( °F °C ) Humidity (%) Winds ( mph kmh ) Pressure ( in mb ) Visibility ( mi km ) Precip ( " mm )
12:53 am 00:53 Clear 83 28.3 39 3.9 21 21 N 12 19 29.88 1012 10 16 0.00 0.00
1:53 am 01:53 Clear 82 27.8 40 4.4 22 22 NNW 10 17 29.88 1012 10 16 0.00 0.00
2:53 am 02:53 Clear 81 27.2 41 5 24 24 NNW 10 17 29.88 1012 10 16 0.00 0.00
3:53 am 03:53 Clear 80 26.7 41 5 25 25 NNW 10 17 29.88 1012 10 16 0.00 0.00
4:53 am 04:53 Clear 80 26.7 41 5 25 25 N 10 17 29.89 1012 10 16 0.00 0.00
5:53 am 05:53 Clear 79 26.1 40 4.4 25 25 NNW 12 19 29.89 1012 10 16 0.00 0.00
6:53 am 06:53 Sunny 80 26.7 38 3.3 22 22 N 14 22 29.91 1013 10 16 0.00 0.00
7:53 am 07:53 Sunny 83 28.3 36 2.2 19 19 NNW 13 20 29.92 1013 10 16 0.00 0.00
8:53 am 08:53 Sunny 88 31.1 31 -0.6 13 13 N 20 31 29.91 1013 10 16 0.00 0.00
9:53 am 09:53 Sunny 90 32.2 30 -1.1 12 12 N 20 31 29.90 1013 10 16 0.00 0.00
10:53 am 10:53 Sunny 94 34.4 30 -1.1 10 10 NNE 17 28 29.89 1012 10 16 0.00 0.00
11:53 am 11:53 Sunny 96 35.6 31 -0.6 10 10 N 14 22 29.88 1012 10 16 0.00 0.00
12:53 pm 12:53 Sunny 100 37.8 30 -1.1 8 8 NNE 12 19 29.86 1011 10 16 0.00 0.00
1:53 pm 13:53 Sunny 102 38.9 28 -2.2 7 7 N 9 15 29.84 1011 10 16 0.00 0.00
2:53 pm 14:53 Sunny 102 38.9 30 -1.1 8 8 NW 9 15 29.82 1010 10 16 0.00 0.00
3:53 pm 15:53 Sunny 104 40 29 -1.7 7 7 WNW 9 15 29.80 1009 10 16 0.00 0.00
4:53 pm 16:53 Sunny 104 40 32 0 8 8 NW 12 19 29.78 1009 10 16 0.00 0.00
5:53 pm 17:53 Sunny 105 40.6 32 0 8 8 NW 12 19 29.77 1008 10 16 0.00 0.00
6:53 pm 18:53 Sunny 104 40 31 -0.6 8 8 NNW 10 17 29.77 1008 10 16 0.00 0.00
7:53 pm 19:53 Sunny 101 38.3 32 0 9 9 NW 6 9 29.77 1008 10 16 0.00 0.00
8:53 pm 20:53 Clear 94 34.4 34 1.1 12 12 NW 6 9 29.78 1008 10 16 0.00 0.00
9:53 pm 21:53 Clear 92 33.3 36 2.2 14 14 NNW 7 11 29.80 1009 10 16 0.00 0.00
10:53 pm 22:53 Clear 88 31.1 39 3.9 18 18 NNW 6 9 29.81 1010 10 16 0.00 0.00
11:53 pm 23:53 Clear 83 28.3 41 5 23 23 NNW 6 9 29.82 1010 10 16 0.00 0.00

Powered by AerisWeather